Regional Weather Roundup
Issued by NWS

Home | Current Version | Previous Version | Graphics & Text | Print | Product List | Glossary On
Versions: 1 2 3 4 5 6 7 8 9 10 11 12 13 14 15 16 17 18 19 20 21 22 23 24 25 26 27 28 29 30 31 32 33 34 35 36 37 38 39 40 41 42 43 44 45 46 47 48 49 50
000
ASUS43 KDTX 280201
RWRMI
MICHIGAN HOURLY REGIONAL WEATHER ROUNDUP
NATIONAL WEATHER SERVICE DETROIT/PONTIAC MI
1000 PM EDT MON MAR 27 2017

NOTE: "FAIR" INDICATES FEW OR NO CLOUDS BELOW 12,000 FEET WITH NO
SIGNIFICANT WEATHER AND/OR OBSTRUCTION TO VISIBILITY.

MIZ047>049-052>055-059>063-066>070-074>076-081>083-280300-
SOUTHEAST LOWER MICHIGAN

CITY           SKY/WX    TMP DP  RH WIND       PRES   REMARKS
ADRIAN         CLOUDY    52  50  93 CALM      29.91S
ALMA           CLOUDY    46  42  86 N6        29.95R
ANN ARBOR      CLOUDY    55  48  77 N8        29.91R
BAD AXE        CLOUDY    38  38  99 NE7       29.96R FOG     WCI  32
CARO           CLOUDY    47  44  91 CALM      29.94R
DETROIT CITY   CLOUDY    55  49  80 N5        29.91R
DETROIT        CLOUDY    57  49  74 N6        29.91R
FLINT          CLOUDY    49  44  83 NW10      29.93R
GROSSE ILE     CLOUDY    45  43  92 CALM      29.90S
HILLSDALE      CLOUDY    50  46  87 N6        29.90R
HOWELL         CLOUDY    50  45  82 N5        29.92R

CITY           SKY/WX    TMP DP  RH WIND       PRES   REMARKS
JACKSON        CLOUDY    52  47  83 N5        29.91S
LAMBERTVILLE   CLOUDY    54  49  86 CALM      29.90S
LANSING        CLOUDY    49  42  77 N8        29.93R
LAPEER         CLOUDY    50  45  81 NW5       29.93R
MASON          CLOUDY    49  46  88 N5        29.93R
MONROE         CLOUDY    54  51  91 CALM      29.89S
MT. CLEMENS    CLOUDY    54  51  89 N8        29.90R
PONTIAC        CLOUDY    51  46  83 N5        29.91R
PORT HOPE        N/A     36  35  96 CALM      29.95R
PORT HURON     CLOUDY    45  41  87 N7        29.94R
TRI CITIES     CLOUDY    47  43  86 N9        29.95R
MIDLAND        CLOUDY    46  39  77 N5        29.95R
TROY           CLOUDY    54  46  75 N6        29.93R
SAGINAW HB     CLOUDY    46  43  87 CALM      29.94R
$$
MIZ043>046-050>051-056>058-064>065-071>073-077>080-280300-
SOUTHWEST LOWER MICHIGAN

CITY           SKY/WX    TMP DP  RH WIND       PRES   REMARKS
BATTLE CREEK   CLOUDY    48  45  89 N9        29.93R
BENTON HARBOR  CLOUDY    40  35  83 VRB3      29.94R
BIG RAPIDS     CLOUDY    40  37  88 N7        29.95R
COLDWATER      CLOUDY    51  49  93 N3        29.91R
FREMONT        MOCLDY    40  37  88 N5        29.95S
HOLLAND        CLOUDY    42  36  79 N3        29.95S
GRAND RAPIDS   CLOUDY    47  42  83 N7        29.94R
IONIA          CLOUDY    46  40  80 N5        29.93S
KALAMAZOO      CLOUDY    48  41  76 N9        29.93R
LUDINGTON      CLOUDY    37  35  94 CALM      29.97S
MARSHALL       CLOUDY    51  48  90 CALM      29.91S
MOUNT PLEASANT CLOUDY    44  40  83 NW5       29.95R
MUSKEGON       CLOUDY    41  35  79 N6        29.96S
SOUTH HAVEN    CLOUDY    40  37  89 CALM      29.94S
$$
MIZ016>042-280300-
NORTHERN LOWER MICHIGAN

CITY           SKY/WX    TMP DP  RH WIND       PRES   REMARKS
ALPENA         CLOUDY    38  38 100 NW3       29.97R FOG
BEAVER ISLAND  CLOUDY    35  34  95 NW3       29.99S
BELLAIRE       CLOUDY    37  35  92 CALM      29.99R
CADILLAC       CLOUDY    35  34  96 N3        29.95S
CHARLEVOIX     CLOUDY    36  36 100 CALM      30.01S
FRANKFORT      CLOUDY    37  34  89 CALM      29.99R
GAYLORD        FOG       36  33  89 CALM      29.95S VSB 1/2
GRAYLING       CLOUDY    36  34  93 N3        29.96F
HARBOR SPRINGS CLOUDY    33  33 100 CALM      29.98S
HOUGHTON LAKE  CLOUDY    37  34  89 NW6       29.96S WCI  32
MANISTEE       CLOUDY    38  35  89 N6        29.98S WCI  33
OSCODA         CLOUDY    37  37  97 CALM      29.95S FOG
PELLSTON       CLOUDY    37  33  85 CALM      29.98R
ROGERS CITY    CLOUDY    37  35  93 NW5       29.98S WCI  33
TRAVERSE CITY  CLOUDY    38  35  89 CALM      29.98R
$$
MIZ007>008-015-280300-
EASTERN UPPER MICHIGAN

CITY           SKY/WX    TMP DP  RH WIND       PRES   REMARKS
KINROSS        CLOUDY    34  32  92 N9        29.96S WCI  27
MACKINAC ISLAN CLOUDY    35  35 100 NW3       29.97S
NEWBERRY       CLOUDY    32  32  99 NW6       29.98R WCI  26
S. S. MARIE    CLOUDY    36  32  85 NW7       29.95S WCI  30
MUNISING         N/A     33  32  96 NW3       30.00R
$$
MIZ004>006-011>014-085-280300-
CENTRAL UPPER MICHIGAN

CITY           SKY/WX    TMP DP  RH WIND       PRES   REMARKS
MANISTIQUE     CLOUDY    34  32  93 N6        29.98S WCI  29
ESCANABA       CLOUDY    36  34  92 CALM      30.00R
MENOMINEE        N/A    N/A N/A N/A MISG        N/A
SAWYER-GWINN   CLOUDY    32  32 100 CALM      29.99R
$$
MIZ001>003-009>011-084-280300-
WESTERN UPPER MICHIGAN

CITY           SKY/WX    TMP DP  RH WIND       PRES   REMARKS
IRON MOUNTAIN  CLOUDY    34  31  88 N6        29.98R WCI  29
HOUGHTON       PTCLDY    34  30  85 NW8       30.00R WCI  27
COPPER HARBOR    N/A     32  31  96 CALM      30.00R
IRONWOOD       PTCLDY    34  30  85 CALM      30.02R
$$

ABBREVIATIONS USED IN REMARKS
   TC - TEMPERATURE IN CELSIUS
  WCI - WIND CHILL INDEX
   HX - HEAT INDEX
  VSB - VISIBILITY





USA.gov is the U.S. government's official web portal to all federal, state and local government web resources and services.